When you browse on this site, cookies collect data to enhance your experience and personalize the content and advertising you see.
Visit our Privacy Policy to learn more. By continuing to use the site, you agree to this use of cookies and data.
  • en France
  • Liste des pays
  • À 7 jours
  • Température de l'eau
  • Carte satellitaire
  • Carte météo
  • Widgets météo
  • user-avatar
    Se connecter

    Météo par heure à Roussé

    Ce jour, 23 Mai, Jeudi

    Heure Température Précipitation Vent Pression Humidité
    00:00 +18°C° 0 mm 1 m/s 753 mmHg 73%
    01:00 +16°C° 0 mm 1 m/s 753 mmHg 76%
    02:00 +15°C° 0 mm 1 m/s 753 mmHg 79%
    03:00 +15°C° 0 mm 2 m/s 753 mmHg 81%
    04:00 +15°C° 0 mm 2 m/s 753 mmHg 83%
    05:00 +14°C° 0 mm 2 m/s 753 mmHg 85%
    06:00 +16°C° 0 mm 3 m/s 753 mmHg 80%
    07:00 +18°C° 0 mm 4 m/s 753 mmHg 75%
    08:00 +20°C° 0 mm 4 m/s 753 mmHg 70%
    09:00 +21°C° 0 mm 5 m/s 753 mmHg 67%
    10:00 +22°C° 0 mm 5 m/s 753 mmHg 63%
    11:00 +23°C° 0 mm 6 m/s 753 mmHg 59%
    12:00 +23°C° 0 mm 6 m/s 753 mmHg 57%
    13:00 +24°C° 0 mm 6 m/s 752 mmHg 56%
    14:00 +24°C° 0 mm 6 m/s 752 mmHg 54%
    15:00 +25°C° 0 mm 5 m/s 752 mmHg 56%
    16:00 +25°C° 0 mm 5 m/s 752 mmHg 58%
    17:00 +23°C° 0 mm 5 m/s 751 mmHg 60%
    18:00 +22°C° 0 mm 4 m/s 752 mmHg 66%
    19:00 +20°C° 0 mm 3 m/s 752 mmHg 71%
    20:00 +18°C° 0 mm 3 m/s 752 mmHg 77%
    21:00 +17°C° 0 mm 3 m/s 752 mmHg 80%
    22:00 +17°C° 0 mm 3 m/s 752 mmHg 83%
    23:00 +16°C° 0 mm 3 m/s 752 mmHg 86%

    Demain, 24 Mai, Vendredi

    Heure Température Précipitation Vent Pression Humidité
    00:00 +16°C° 0 mm 3 m/s 752 mmHg 86%
    01:00 +14°C° 0 mm 3 m/s 752 mmHg 86%
    02:00 +14°C° 0 mm 4 m/s 752 mmHg 86%
    03:00 +14°C° 0 mm 4 m/s 752 mmHg 86%
    04:00 +13°C° 0 mm 4 m/s 751 mmHg 87%
    05:00 +13°C° 0 mm 4 m/s 751 mmHg 87%
    06:00 +14°C° 0 mm 4 m/s 751 mmHg 84%
    07:00 +15°C° 0 mm 5 m/s 751 mmHg 81%
    08:00 +16°C° 0 mm 5 m/s 752 mmHg 79%
    09:00 +19°C° 0.1 mm 5 m/s 751 mmHg 75%
    10:00 +20°C° 0.1 mm 5 m/s 751 mmHg 71%
    11:00 +21°C° 0.1 mm 5 m/s 751 mmHg 67%
    12:00 +22°C° 0.8 mm 5 m/s 751 mmHg 66%
    13:00 +22°C° 0.8 mm 5 m/s 750 mmHg 66%
    14:00 +22°C° 0.8 mm 6 m/s 750 mmHg 65%
    15:00 +22°C° 0.6 mm 5 m/s 750 mmHg 65%
    16:00 +22°C° 0.6 mm 5 m/s 750 mmHg 65%
    17:00 +22°C° 0.6 mm 5 m/s 749 mmHg 66%
    18:00 +21°C° 0.1 mm 5 m/s 750 mmHg 70%
    19:00 +19°C° 0.1 mm 4 m/s 750 mmHg 75%
    20:00 +18°C° 0.1 mm 4 m/s 750 mmHg 80%
    21:00 +17°C° 0 mm 4 m/s 750 mmHg 82%
    22:00 +16°C° 0 mm 3 m/s 751 mmHg 84%
    23:00 +14°C° 0 mm 3 m/s 751 mmHg 85%

    Après-demain, 25 Mai, Samedi

    Heure Température Précipitation Vent Pression Humidité
    00:00 +14°C° 0 mm 3 m/s 751 mmHg 86%
    01:00 +14°C° 0 mm 3 m/s 751 mmHg 87%
    02:00 +13°C° 0 mm 3 m/s 751 mmHg 88%
    03:00 +13°C° 0 mm 3 m/s 751 mmHg 87%
    04:00 +13°C° 0 mm 3 m/s 751 mmHg 86%
    05:00 +13°C° 0 mm 3 m/s 751 mmHg 86%
    06:00 +14°C° 0 mm 4 m/s 751 mmHg 82%
    07:00 +16°C° 0 mm 5 m/s 752 mmHg 79%
    08:00 +17°C° 0 mm 6 m/s 752 mmHg 76%
    09:00 +20°C° 0 mm 6 m/s 752 mmHg 72%
    10:00 +21°C° 0 mm 6 m/s 752 mmHg 68%
    11:00 +22°C° 0 mm 6 m/s 752 mmHg 64%
    12:00 +23°C° 0.8 mm 6 m/s 752 mmHg 63%
    13:00 +24°C° 0.8 mm 6 m/s 752 mmHg 62%
    14:00 +24°C° 0.8 mm 6 m/s 752 mmHg 61%
    15:00 +24°C° 0.4 mm 6 m/s 752 mmHg 62%
    16:00 +25°C° 0.4 mm 5 m/s 752 mmHg 62%
    17:00 +25°C° 0.4 mm 5 m/s 751 mmHg 62%
    18:00 +22°C° 0 mm 4 m/s 752 mmHg 68%
    19:00 +21°C° 0 mm 4 m/s 752 mmHg 73%
    20:00 +19°C° 0 mm 3 m/s 752 mmHg 78%
    21:00 +18°C° 0 mm 3 m/s 753 mmHg 80%
    22:00 +18°C° 0 mm 3 m/s 753 mmHg 81%
    23:00 +17°C° 0 mm 3 m/s 753 mmHg 83%

    26 Mai, Dimanche

    Heure Température Précipitation Vent Pression Humidité
    00:00 +16°C° 0 mm 2 m/s 753 mmHg 84%
    01:00 +16°C° 0 mm 2 m/s 754 mmHg 85%
    02:00 +16°C° 0 mm 2 m/s 754 mmHg 85%
    03:00 +15°C° 0 mm 2 m/s 754 mmHg 85%
    04:00 +15°C° 0 mm 1 m/s 754 mmHg 85%
    05:00 +15°C° 0 mm 1 m/s 754 mmHg 85%
    06:00 +18°C° 0 mm 1 m/s 754 mmHg 79%
    07:00 +20°C° 0 mm 1 m/s 754 mmHg 74%
    08:00 +21°C° 0 mm 1 m/s 754 mmHg 68%
    09:00 +23°C° 0 mm 2 m/s 754 mmHg 63%
    10:00 +24°C° 0 mm 2 m/s 755 mmHg 58%
    11:00 +26°C° 0 mm 2 m/s 755 mmHg 54%
    12:00 +27°C° 0 mm 1 m/s 754 mmHg 50%
    13:00 +28°C° 0 mm 1 m/s 754 mmHg 47%
    14:00 +29°C° 0 mm 1 m/s 753 mmHg 44%
    15:00 +29°C° 0 mm 1 m/s 753 mmHg 43%
    16:00 +29°C° 0 mm 1 m/s 753 mmHg 43%
    17:00 +29°C° 0 mm 1 m/s 753 mmHg 43%
    18:00 +27°C° 0 mm 1 m/s 753 mmHg 48%
    19:00 +25°C° 0 mm 1 m/s 753 mmHg 53%
    20:00 +24°C° 0 mm 1 m/s 753 mmHg 58%
    21:00 +23°C° 0 mm 1 m/s 754 mmHg 62%
    22:00 +21°C° 0 mm 2 m/s 754 mmHg 66%
    23:00 +20°C° 0 mm 2 m/s 754 mmHg 70%

    27 Mai, Lundi

    Heure Température Précipitation Vent Pression Humidité
    00:00 +20°C° 0 mm 2 m/s 754 mmHg 72%
    01:00 +19°C° 0 mm 2 m/s 754 mmHg 74%
    02:00 +20°C° 0 mm 1 m/s 754 mmHg 76%
    03:00 +19°C° 0 mm 1 m/s 754 mmHg 77%
    04:00 +19°C° 0 mm 1 m/s 754 mmHg 79%
    05:00 +18°C° 0 mm 1 m/s 754 mmHg 81%
    06:00 +20°C° 0 mm 1 m/s 754 mmHg 75%
    07:00 +22°C° 0 mm 1 m/s 754 mmHg 70%
    08:00 +24°C° 0 mm 1 m/s 754 mmHg 65%
    09:00 +25°C° 0 mm 2 m/s 753 mmHg 60%
    10:00 +27°C° 0 mm 2 m/s 753 mmHg 55%
    11:00 +29°C° 0 mm 2 m/s 753 mmHg 51%
    12:00 +29°C° 0 mm 3 m/s 753 mmHg 50%
    13:00 +30°C° 0 mm 3 m/s 752 mmHg 49%
    14:00 +32°C° 0 mm 4 m/s 752 mmHg 49%
    15:00 +30°C° 0 mm 4 m/s 752 mmHg 51%
    16:00 +30°C° 0 mm 4 m/s 752 mmHg 54%
    17:00 +30°C° 0 mm 3 m/s 751 mmHg 56%
    18:00 +28°C° 0 mm 3 m/s 751 mmHg 60%
    19:00 +26°C° 0 mm 3 m/s 751 mmHg 64%
    20:00 +25°C° 0 mm 3 m/s 751 mmHg 69%
    21:00 +24°C° 0.2 mm 3 m/s 751 mmHg 69%
    22:00 +22°C° 0.2 mm 4 m/s 751 mmHg 70%
    23:00 +22°C° 0.2 mm 4 m/s 751 mmHg 71%

    28 Mai, Mardi

    Heure Température Précipitation Vent Pression Humidité
    00:00 +21°C° 0.5 mm 4 m/s 751 mmHg 73%
    01:00 +20°C° 0.5 mm 4 m/s 751 mmHg 75%
    02:00 +20°C° 0.5 mm 4 m/s 751 mmHg 78%
    03:00 +19°C° 0.4 mm 4 m/s 750 mmHg 78%
    04:00 +19°C° 0.4 mm 4 m/s 750 mmHg 79%
    05:00 +18°C° 0.4 mm 3 m/s 750 mmHg 79%
    06:00 +20°C° 0 mm 4 m/s 750 mmHg 74%
    07:00 +22°C° 0 mm 4 m/s 750 mmHg 68%
    08:00 +23°C° 0 mm 4 m/s 750 mmHg 62%
    09:00 +26°C° 0 mm 3 m/s 750 mmHg 56%
    10:00 +27°C° 0 mm 3 m/s 750 mmHg 50%
    11:00 +29°C° 0 mm 3 m/s 750 mmHg 44%
    12:00 +30°C° 0 mm 3 m/s 749 mmHg 42%
    13:00 +31°C° 0 mm 2 m/s 749 mmHg 41%
    14:00 +31°C° 0 mm 2 m/s 749 mmHg 39%
    15:00 +31°C° 0 mm 2 m/s 749 mmHg 40%
    16:00 +32°C° 0 mm 2 m/s 749 mmHg 42%
    17:00 +32°C° 0 mm 1 m/s 749 mmHg 43%
    18:00 +29°C° 0 mm 1 m/s 749 mmHg 48%
    19:00 +27°C° 0 mm 1 m/s 749 mmHg 52%
    20:00 +25°C° 0 mm 1 m/s 749 mmHg 57%
    21:00 +24°C° 0 mm 1 m/s 750 mmHg 60%
    22:00 +23°C° 0 mm 1 m/s 750 mmHg 63%
    23:00 +22°C° 0 mm 1 m/s 751 mmHg 66%
    Voir plus